Location: Castillon
(43.0896°N, 0.2156°E)
Time: 01:29:05
(UTC+00:00)

Cosmos 1900 - Pass Details

Date: 16 June 2021
Orbit: 691 x 730 km, 66.1° (Epoch: 04 August)

Event Time Altitude Azimuth Distance (km) Brightness Sun altitude
Rises 22:30:07 0° 324° (NW) 3,086 9.1 -20.4°
Reaches altitude 10° 22:32:30 10° 321° (NW) 2,160 7.9 -20.5°
Maximum altitude 22:37:19 59° 243° (WSW) 796 4.5 -20.9°
Enters shadow 22:38:27 46° 192° (SSW) 926 4.5 -20.9°
